This is the latest recevied weather packets stored in our database for station/object KD0ISH. If no packets are shown the sender has not sent any weather packets the latest 10 day(s).
| Time | Temp. | Humidity | Pressure | Rain* | Wind** | Luminosity | Snow |
|---|---|---|---|---|---|---|---|
| 1777971958 | 14.44° C | 88% | 1008 hPa | 0 mm | - | 0 W/m² | - |
| 1777971656 | 15° C | 87% | 1008 hPa | 0 mm | - | 0 W/m² | - |
| 1777971353 | 17.22° C | 86% | 1007.8 hPa | 1.78 mm | - | 0 W/m² | - |
| 1777971051 | 18.33° C | 85% | 1007.9 hPa | 1.78 mm | - | 0 W/m² | - |
| 1777970749 | 18.89° C | 82% | 1007.2 hPa | 0 mm | - | 0 W/m² | - |
| 1777970447 | 18.89° C | 80% | 1007.2 hPa | 0 mm | - | 0 W/m² | - |
| 1777970144 | 18.89° C | 79% | 1006.3 hPa | 0 mm | - | 0 W/m² | - |
| 1777969840 | 18.89° C | 79% | 1005.8 hPa | 0 mm | - | 0 W/m² | - |
| 1777969536 | 18.89° C | 78% | 1005.6 hPa | 0 mm | - | 0 W/m² | - |
| 1777969233 | 18.89° C | 79% | 1005.3 hPa | 0 mm | - | 0 W/m² | - |
| 1777968930 | 18.33° C | 81% | 1005.2 hPa | 0 mm | - | 0 W/m² | - |
| 1777968627 | 18.33° C | 81% | 1005 hPa | 0 mm | - | 0 W/m² | - |
| 1777968323 | 18.89° C | 81% | 1005.2 hPa | 0 mm | - | 0 W/m² | - |
| 1777968020 | 18.89° C | 81% | 1005.2 hPa | 0 mm | - | 0 W/m² | - |
| 1777967716 | 18.89° C | 80% | 1005.4 hPa | 0 mm | - | 0 W/m² | - |
| 1777967413 | 18.89° C | 79% | 1005.1 hPa | 0 mm | - | 0 W/m² | - |
| 1777967110 | 19.44° C | 78% | 1005 hPa | 0 mm | - | 0 W/m² | - |
| 1777966807 | 19.44° C | 77% | 1005.3 hPa | 0 mm | - | 0 W/m² | - |
| 1777966504 | 20° C | 76% | 1005.3 hPa | 0 mm | - | 0 W/m² | - |
| 1777966203 | 20° C | 75% | 1004.5 hPa | 0 mm | - | 0 W/m² | - |
| 1777965898 | 20° C | 74% | 1004.5 hPa | 0 mm | - | 0 W/m² | - |
| 1777965594 | 20° C | 74% | 1005 hPa | 0 mm | - | 0 W/m² | - |
| 1777965290 | 20° C | 74% | 1005.3 hPa | 0 mm | - | 0 W/m² | - |
| 1777964988 | 20° C | 74% | 1005.5 hPa | 0 mm | - | 0 W/m² | - |
| 1777964685 | 19.44° C | 74% | 1005.3 hPa | 0 mm | - | 0 W/m² | - |
* Rain latest hour (hover to see other rain measurements)
** Current wind speed in m/s (hover to see current wind gust speed)